EW4164 Weather Reports


time (UTC)temp
C
wind
direction
speed
KPH
gust
KPH
rain 1hr
cm
rain 24hr
cm
rain mn
cm
humidity
%
barometer
mb
20260903205537 19 208 0.0 3.2 0.00 0.00 0.00 69 1021.2
20260903204517 19 178 0.0 4.8 0.00 0.00 0.00 69 1021.1
20260903203517 20 204 0.0 1.6 0.00 0.00 0.00 68 1021.2
20260903202517 20 236 0.0 1.6 0.00 0.00 0.00 67 1021.2
20260903201517 20 230 0.0 3.2 0.00 0.00 0.00 66 1021.2
20260903200517 21 177 0.0 3.2 0.00 0.00 0.00 65 1021.2
20260903195517 21 170 1.6 3.2 0.00 0.00 0.00 64 1021.2
20260903194517 21 223 1.6 3.2 0.00 0.00 0.00 62 1021.2
20260903193517 22 0.0 3.2 0.00 0.00 0.00 61 1021.2
20260903192516 22 286 0.0 1.6 0.00 0.00 0.00 59 1021.1
20260903191517 23 232 0.0 3.2 0.00 0.00 0.00 57 1021.1
20260903190557 23 260 0.0 3.2 0.00 0.00 0.00 55 1021.2
20260903185517 23 268 1.6 8.0 0.00 0.00 0.00 53 1021.1
20260903184517 23 219 1.6 8.0 0.00 0.00 0.00 52 1021.1
20260903183517 24 224 3.2 12.9 0.00 0.00 0.00 51 1021.0
20260903182517 24 228 3.2 16.1 0.00 0.00 0.00 51 1020.9
20260903181517 24 219 3.2 9.7 0.00 0.00 0.00 51 1020.7
20260903180516 24 230 3.2 14.5 0.00 0.00 0.00 51 1020.7
20260903175517 24 226 4.8 12.9 0.00 0.00 0.00 51 1020.6
20260903174516 24 214 3.2 9.7 0.00 0.00 0.00 51 1020.6
20260903173517 24 225 4.8 9.7 0.00 0.00 0.00 51 1020.6
20260903172517 25 249 1.6 4.8 0.00 0.00 0.00 51 1020.7
20260903171537 25 211 1.6 8.0 0.00 0.00 0.00 50 1020.6
20260903170537 25 229 1.6 8.0 0.00 0.00 0.00 49 1020.6
20260903165517 25 218 1.6 6.4 0.00 0.00 0.00 50 1020.4
20260903164537 25 224 3.2 8.0 0.00 0.00 0.00 48 1020.4
20260903163517 25 229 3.2 9.7 0.00 0.00 0.00 48 1020.4
20260903162517 25 218 3.2 14.5 0.00 0.00 0.00 48 1020.3
20260903161537 25 221 3.2 11.3 0.00 0.00 0.00 48 1020.3
20260903160517 26 212 6.4 14.5 0.00 0.00 0.00 47 1020.4
20260903155557 26 219 6.4 14.5 0.00 0.00 0.00 47 1020.3
20260903154537 26 227 4.8 16.1 0.00 0.00 0.00 47 1020.3
20260903153517 26 223 4.8 14.5 0.00 0.00 0.00 47 1020.5
20260903152517 26 222 4.8 17.7 0.00 0.00 0.00 47 1020.6
20260903151517 26 219 8.0 19.3 0.00 0.00 0.00 46 1020.7
20260903150517 26 219 6.4 22.5 0.00 0.00 0.00 46 1020.7
20260903145517 26 221 4.8 16.1 0.00 0.00 0.00 47 1020.7
20260903144516 26 193 6.4 16.1 0.00 0.00 0.00 47 1020.7
20260903143537 26 225 8.0 19.3 0.00 0.00 0.00 46 1020.8
20260903142517 26 208 6.4 22.5 0.00 0.00 0.00 47 1020.8
20260903141557 26 216 6.4 19.3 0.00 0.00 0.00 46 1021.0
20260903140517 26 222 6.4 24.1 0.00 0.00 0.00 47 1021.0
20260903135537 26 220 4.8 17.7 0.00 0.00 0.00 47 1020.9
20260903134517 26 231 6.4 17.7 0.00 0.00 0.00 46 1021.0
20260903133517 26 224 6.4 24.1 0.00 0.00 0.00 46 1021.0
20260903132517 26 217 6.4 25.7 0.00 0.00 0.00 46 1021.0
20260903131517 26 224 8.0 17.7 0.00 0.00 0.00 45 1021.1
20260903130517 26 211 6.4 14.5 0.00 0.00 0.00 47 1021.1
20260903125517 26 201 9.7 19.3 0.00 0.00 0.00 46 1021.2
20260903124517 26 226 9.7 25.7 0.00 0.00 0.00 46 1021.3
20260903123537 26 213 8.0 22.5 0.00 0.00 0.00 47 1021.2
20260903122517 25 210 8.0 24.1 0.00 0.00 0.00 48 1021.3
20260903121517 25 224 9.7 25.7 0.00 0.00 0.00 46 1021.7
20260903120517 25 223 6.4 16.1 0.00 0.00 0.00 47 1021.6
20260903115537 25 223 9.7 19.3 0.00 0.00 0.00 46 1021.5
20260903114517 25 223 4.8 20.9 0.00 0.00 0.00 47 1021.4
20260903113517 25 234 4.8 16.1 0.00 0.00 0.00 48 1021.4
20260903112517 25 222 4.8 14.5 0.00 0.00 0.00 47 1021.3
20260903111517 25 219 6.4 20.9 0.00 0.00 0.00 47 1021.4
20260903110517 25 217 9.7 20.9 0.00 0.00 0.00 46 1021.4
20260903105517 25 217 8.0 25.7 0.00 0.00 0.00 46 1021.5
20260903104517 25 218 9.7 20.9 0.00 0.00 0.00 46 1021.7
20260903103517 25 227 8.0 22.5 0.00 0.00 0.00 46 1021.8
20260903102557 25 221 8.0 17.7 0.00 0.00 0.00 46 1021.9
20260903101537 24 221 6.4 19.3 0.00 0.00 0.00 48 1022.1
20260903100516 24 217 6.4 22.5 0.00 0.00 0.00 49 1022.3
20260903095517 23 219 8.0 19.3 0.00 0.00 0.00 49 1022.4
20260903094517 23 223 9.7 20.9 0.00 0.00 0.00 49 1022.3
20260903093517 23 211 6.4 14.5 0.00 0.00 0.00 50 1022.4
20260903092537 23 218 6.4 17.7 0.00 0.00 0.00 50 1022.4
20260903091517 23 222 3.2 14.5 0.00 0.00 0.00 52 1022.3
20260903090517 23 212 4.8 14.5 0.00 0.00 0.00 53 1022.2
20260903085517 22 208 3.2 9.7 0.00 0.00 0.00 55 1022.2
20260903084537 22 220 4.8 12.9 0.00 0.00 0.00 58 1022.3
20260903083517 21 138 3.2 11.3 0.00 0.00 0.00 61 1022.4
20260903082517 21 152 4.8 12.9 0.00 0.00 0.00 63 1022.4
20260903081537 20 159 3.2 9.7 0.00 0.00 0.00 64 1022.6
20260903080517 20 185 3.2 11.3 0.00 0.00 0.00 63 1022.5
20260903075517 19 196 3.2 9.7 0.00 0.00 0.00 67 1022.2
20260903074517 18 196 1.6 8.0 0.00 0.00 0.00 69 1022.1
20260903073557 18 143 1.6 8.0 0.00 0.00 0.00 72 1022.1
20260903072517 17 217 0.0 4.8 0.00 0.00 0.00 73 1022.4
20260903071516 17 308 0.0 1.6 0.00 0.00 0.00 76 1022.7
20260903070517 16 284 0.0 1.6 0.00 0.00 0.00 77 1022.5
20260903065517 16 217 0.0 1.6 0.00 0.00 0.00 82 1022.6
20260903064517 15 342 0.0 1.6 0.00 0.00 0.00 83 1022.5
20260903063517 14 310 0.0 1.6 0.00 0.00 0.00 85 1022.4
20260903062516 13 206 0.0 1.6 0.00 0.00 0.00 86 1022.4
20260903061517 13 0.0 1.6 0.00 0.00 0.00 86 1022.3
20260903060537 13 206 0.0 1.6 0.00 0.00 0.00 86 1022.3
20260903055517 13 206 0.0 1.6 0.00 0.00 0.00 85 1022.1
20260903054517 13 181 0.0 1.6 0.00 0.00 0.00 85 1022.1
20260903053517 13 205 1.6 3.2 0.00 0.00 0.00 85 1022.3
20260903052537 13 185 1.6 4.8 0.00 0.00 0.00 85 1022.2
20260903051517 13 219 1.6 4.8 0.00 0.00 0.00 84 1022.2
20260903050517 13 207 1.6 6.4 0.00 0.00 0.00 84 1022.3
20260903045517 13 155 1.6 4.8 0.00 0.00 0.00 83 1022.3
20260903044538 13 196 1.6 4.8 0.00 0.00 0.00 82 1022.2
20260903043517 13 191 1.6 4.8 0.00 0.00 0.00 82 1022.0
20260903042517 13 208 1.6 4.8 0.00 0.00 0.00 82 1021.8
20260903041517 13 211 3.2 6.4 0.00 0.00 0.00 82 1021.9
20260903040517 13 225 4.8 9.7 0.00 0.00 0.00 82 1021.8
20260903035517 13 226 4.8 11.3 0.00 0.00 0.00 82 1021.9
20260903034517 13 227 3.2 8.0 0.00 0.00 0.00 81 1021.7
20260903033517 14 230 4.8 9.7 0.00 0.00 0.00 82 1021.9
20260903032517 14 225 4.8 11.3 0.00 0.00 0.00 81 1022.2
20260903031517 14 223 4.8 11.3 0.00 0.00 0.00 81 1022.2
20260903030517 14 230 4.8 11.3 0.00 0.00 0.00 81 1022.2
20260903025537 14 223 4.8 11.3 0.00 0.00 0.00 81 1022.2
20260903024557 14 225 4.8 9.7 0.00 0.00 0.00 81 1022.1
20260903023517 14 218 4.8 6.4 0.00 0.00 0.00 81 1022.2
20260903022516 14 226 4.8 9.7 0.00 0.00 0.00 81 1022.2
20260903021517 14 225 4.8 9.7 0.00 0.00 0.00 81 1022.3
20260903020557 14 226 4.8 8.0 0.00 0.00 0.00 80 1022.3
20260903015537 15 223 4.8 11.3 0.00 0.00 0.00 80 1022.3
20260903014517 15 224 4.8 11.3 0.00 0.00 0.00 80 1022.2
20260903013517 15 222 3.2 9.7 0.00 0.00 0.00 80 1022.2
20260903012517 15 226 4.8 9.7 0.00 0.00 0.00 80 1022.2
20260903011517 15 225 4.8 9.7 0.00 0.00 0.00 80 1022.3
20260903010517 15 223 4.8 8.0 0.00 0.00 0.00 79 1022.3
20260903005517 15 230 4.8 8.0 0.00 0.00 0.00 79 1022.3
20260903004517 15 224 3.2 8.0 0.00 0.00 0.00 79 1022.4
20260903003517 15 225 4.8 9.7 0.00 0.00 0.00 79 1022.3
20260903002537 15 225 4.8 11.3 0.00 0.00 0.00 78 1022.2
20260903001517 15 225 4.8 8.0 0.00 0.00 0.00 78 1022.2
20260903000517 15 220 3.2 8.0 0.00 0.00 0.00 78 1022.3
20260902235517 15 226 4.8 11.3 0.00 0.00 0.00 78 1022.4
20260902234517 15 226 4.8 9.7 0.00 0.00 0.00 78 1022.5
20260902233517 15 226 6.4 12.9 0.00 0.00 0.00 78 1022.5
20260902232517 15 228 6.4 11.3 0.00 0.00 0.00 77 1022.5
20260902231537 15 230 6.4 11.3 0.00 0.00 0.00 77 1022.4
20260902230517 15 217 4.8 11.3 0.00 0.00 0.00 76 1022.4
20260902225517 16 223 4.8 9.7 0.00 0.00 0.00 76 1022.4
20260902224537 16 231 4.8 9.7 0.00 0.00 0.00 76 1022.4
20260902223517 16 225 4.8 11.3 0.00 0.00 0.00 75 1022.4
20260902222517 16 228 4.8 11.3 0.00 0.00 0.00 75 1022.4
20260902221517 16 228 4.8 9.7 0.00 0.00 0.00 74 1022.4
20260902220517 16 233 4.8 9.7 0.00 0.00 0.00 74 1022.3
20260902215537 16 229 4.8 11.3 0.00 0.00 0.00 74 1022.2
20260902214517 16 232 4.8 12.9 0.00 0.00 0.00 73 1022.2
20260902213517 16 233 4.8 11.3 0.00 0.00 0.00 73 1022.1
20260902212517 16 226 4.8 9.7 0.00 0.00 0.00 73 1022.0
20260902211517 17 228 4.8 8.0 0.00 0.00 0.00 72 1022.0
20260902210657 17 230 4.8 9.7 0.00 0.00 0.00 72 1022.0